| time (UTC) | temp C | wind direction | speed KPH | gust KPH | rain 1hr cm | rain 24hr cm | rain mn cm | humidity % | barometer mb |
| 20260906225543 | 18 | 43 | 0.0 | 0.0 | 0.00 | 0.00 | 0.00 | 10 | 1018.0 |
| 20260906225038 | 17 | 17 | 0.0 | 0.0 | 0.00 | 0.00 | 0.00 | 10 | 1017.9 |
| 20260906224534 | 17 | 356 | 0.0 | 1.6 | 0.00 | 0.00 | 0.00 | 10 | 1017.9 |
| 20260906224031 | 17 | 26 | 0.0 | 1.6 | 0.00 | 0.00 | 0.00 | 10 | 1018.0 |
| 20260906223526 | 17 | 12 | 0.0 | 1.6 | 0.00 | 0.00 | 0.00 | 10 | 1018.3 |
| 20260906223025 | 17 | 38 | 0.0 | 3.2 | 0.00 | 0.00 | 0.00 | 10 | 1017.9 |
| 20260906222519 | 17 | 347 | 0.0 | 0.0 | 0.00 | 0.00 | 0.00 | 10 | 1018.0 |
| 20260906222017 | 17 | 42 | 0.0 | 1.6 | 0.00 | 0.00 | 0.00 | 10 | 1018.0 |
| 20260906221516 | 17 | 38 | 0.0 | 1.6 | 0.00 | 0.00 | 0.00 | 10 | 1018.1 |
| 20260906221012 | 17 | 35 | 0.0 | 0.0 | 0.00 | 0.00 | 0.00 | 10 | 1018.0 |
| 20260906220511 | 16 | 25 | 0.0 | 0.0 | 0.00 | 0.00 | 0.00 | 10 | 1018.1 |
| 20260906220007 | 16 | 31 | 0.0 | 1.6 | 0.00 | 0.00 | 0.00 | 10 | 1017.8 |
| 20260906215506 | 16 | 20 | 0.0 | 0.0 | 0.00 | 0.00 | 0.00 | 10 | 1018.0 |
| 20260906215003 | 16 | 32 | 0.0 | 0.0 | 0.00 | 0.00 | 0.00 | 10 | 1018.1 |
| 20260906214502 | 16 | 15 | 0.0 | 0.0 | 0.00 | 0.00 | 0.00 | 10 | 1018.3 |
| 20260906213957 | 16 | 30 | 0.0 | 1.6 | 0.00 | 0.00 | 0.00 | 10 | 1018.1 |
| 20260906213451 | 16 | 30 | 0.0 | 1.6 | 0.00 | 0.00 | 0.00 | 10 | 1018.1 |
| 20260906212950 | 16 | 25 | 0.0 | 0.0 | 0.00 | 0.00 | 0.00 | 10 | 1018.3 |
| 20260906212445 | 16 | 42 | 0.0 | 0.0 | 0.00 | 0.00 | 0.00 | 10 | 1018.4 |
| 20260906211940 | 16 | 13 | 0.0 | 0.0 | 0.00 | 0.00 | 0.00 | 10 | 1018.3 |
| 20260906211440 | 16 | 22 | 0.0 | 0.0 | 0.00 | 0.00 | 0.00 | 10 | 1018.4 |
| 20260906210935 | 16 | 37 | 0.0 | 1.6 | 0.00 | 0.00 | 0.00 | 10 | 1018.4 |
| 20260906210431 | 16 | 38 | 0.0 | 1.6 | 0.00 | 0.00 | 0.00 | 10 | 1018.3 |
| 20260906205924 | 16 | 28 | 0.0 | 1.6 | 0.00 | 0.00 | 0.00 | 10 | 1018.3 |
| 20260906205421 | 16 | 12 | 0.0 | 0.0 | 0.00 | 0.00 | 0.00 | 10 | 1018.5 |
| 20260906204917 | 16 | 24 | 0.0 | 0.0 | 0.00 | 0.00 | 0.00 | 10 | 1018.4 |
| 20260906204416 | 16 | 26 | 0.0 | 0.0 | 0.00 | 0.00 | 0.00 | 10 | 1018.4 |
| 20260906203915 | 16 | 46 | 0.0 | 1.6 | 0.00 | 0.00 | 0.00 | 10 | 1018.5 |
| 20260906203410 | 16 | 10 | 0.0 | 3.2 | 0.00 | 0.00 | 0.00 | 10 | 1018.4 |
| 20260906202908 | 16 | 37 | 0.0 | 0.0 | 0.00 | 0.00 | 0.00 | 10 | 1018.4 |
| 20260906202402 | 16 | 38 | 0.0 | 0.0 | 0.00 | 0.00 | 0.00 | 10 | 1018.4 |
| 20260906201902 | 16 | 0 | 0.0 | 0.0 | 0.00 | 0.00 | 0.00 | 10 | 1018.4 |
| 20260906201356 | 17 | 15 | 0.0 | 0.0 | 0.00 | 0.00 | 0.00 | 10 | 1018.1 |
| 20260906200851 | 16 | 336 | 0.0 | 0.0 | 0.00 | 0.00 | 0.00 | 10 | 1018.1 |
| 20260906200348 | 16 | 1 | 0.0 | 0.0 | 0.00 | 0.00 | 0.00 | 10 | 1018.5 |
| 20260906195842 | 16 | 29 | 0.0 | 0.0 | 0.00 | 0.00 | 0.00 | 10 | 1018.3 |
| 20260906195339 | 16 | 36 | 0.0 | 1.6 | 0.00 | 0.00 | 0.00 | 10 | 1018.5 |
| 20260906194834 | 16 | 41 | 0.0 | 1.6 | 0.00 | 0.00 | 0.00 | 10 | 1018.4 |
| 20260906194330 | 16 | 30 | 0.0 | 1.6 | 0.00 | 0.00 | 0.00 | 10 | 1018.6 |
| 20260906193825 | 17 | 28 | 0.0 | 3.2 | 0.00 | 0.00 | 0.00 | 10 | 1018.4 |
| 20260906193319 | 16 | 38 | 0.0 | 0.0 | 0.00 | 0.00 | 0.00 | 10 | 1018.6 |
| 20260906192810 | 16 | 22 | 0.0 | 0.0 | 0.00 | 0.00 | 0.00 | 10 | 1018.3 |
| 20260906192310 | 16 | 32 | 0.0 | 0.0 | 0.00 | 0.00 | 0.00 | 10 | 1018.4 |
| 20260906191809 | 16 | 32 | 0.0 | 0.0 | 0.00 | 0.00 | 0.00 | 10 | 1018.3 |
| 20260906191304 | 16 | 34 | 0.0 | 3.2 | 0.00 | 0.00 | 0.00 | 10 | 1018.4 |
| 20260906190803 | 16 | 36 | 0.0 | 3.2 | 0.00 | 0.00 | 0.00 | 10 | 1018.3 |
| 20260906190258 | 16 | 46 | 0.0 | 0.0 | 0.00 | 0.00 | 0.00 | 10 | 1018.3 |
| 20260906185757 | 16 | 24 | 0.0 | 0.0 | 0.00 | 0.00 | 0.00 | 10 | 1018.8 |
| 20260906185256 | 15 | 33 | 0.0 | 1.6 | 0.00 | 0.00 | 0.00 | 10 | 1018.4 |
| 20260906184751 | 15 | 34 | 0.0 | 3.2 | 0.00 | 0.00 | 0.00 | 10 | 1018.5 |
| 20260906184246 | 15 | 45 | 1.6 | 4.8 | 0.00 | 0.00 | 0.00 | 10 | 1018.6 |
| 20260906183742 | 15 | 36 | 0.0 | 3.2 | 0.00 | 0.00 | 0.00 | 10 | 1018.6 |
| 20260906183238 | 15 | 33 | 0.0 | 4.8 | 0.00 | 0.00 | 0.00 | 10 | 1018.8 |
| 20260906182738 | 15 | 33 | 0.0 | 3.2 | 0.00 | 0.00 | 0.00 | 10 | 1018.6 |
| 20260906182233 | 15 | 38 | 1.6 | 3.2 | 0.00 | 0.00 | 0.00 | 10 | 1019.0 |
| 20260906181723 | 15 | 35 | 1.6 | 3.2 | 0.00 | 0.00 | 0.00 | 10 | 1018.7 |
| 20260906181219 | 15 | 27 | 0.0 | 0.0 | 0.00 | 0.00 | 0.00 | 10 | 1018.8 |
| 20260906180714 | 14 | 54 | 0.0 | 0.0 | 0.00 | 0.00 | 0.00 | 10 | 1018.7 |
| 20260906180209 | 14 | 28 | 0.0 | 0.0 | 0.00 | 0.00 | 0.00 | 10 | 1019.4 |
| 20260906175707 | 13 | 353 | 1.6 | 1.6 | 0.00 | 0.00 | 0.00 | 10 | 1019.7 |
| 20260906175203 | 13 | 350 | 0.0 | 0.0 | 0.00 | 0.00 | 0.00 | 10 | 1020.1 |
| 20260906174700 | 13 | 17 | 0.0 | 1.6 | 0.00 | 0.00 | 0.00 | 10 | 1020.5 |
| 20260906174155 | 13 | 3 | 0.0 | 4.8 | 0.00 | 0.00 | 0.00 | 10 | 1020.1 |
| 20260906173650 | 13 | 21 | 0.0 | 3.2 | 0.00 | 0.00 | 0.00 | 10 | 1020.5 |
| 20260906173146 | 13 | 33 | 1.6 | 3.2 | 0.00 | 0.00 | 0.00 | 10 | 1020.1 |
| 20260906172645 | 13 | 35 | 0.0 | 0.0 | 0.00 | 0.00 | 0.00 | 10 | 1020.2 |
| 20260906172141 | 13 | 15 | 1.6 | 3.2 | 0.00 | 0.00 | 0.00 | 10 | 1020.5 |
| 20260906171640 | 13 | 37 | 0.0 | 1.6 | 0.00 | 0.00 | 0.00 | 10 | 1020.3 |
| 20260906171136 | 13 | 36 | 0.0 | 1.6 | 0.00 | 0.00 | 0.00 | 10 | 1020.5 |
| 20260906170632 | 13 | 10 | 1.6 | 4.8 | 0.00 | 0.00 | 0.00 | 10 | 1020.3 |
| 20260906170131 | 13 | 34 | 0.0 | 3.2 | 0.00 | 0.00 | 0.00 | 10 | 1020.3 |
| 20260906165628 | 13 | 5 | 0.0 | 0.0 | 0.00 | 0.00 | 0.00 | 10 | 1020.6 |
| 20260906165123 | 13 | 21 | 1.6 | 3.2 | 0.00 | 0.00 | 0.00 | 10 | 1020.2 |
| 20260906164621 | 13 | 3 | 1.6 | 4.8 | 0.00 | 0.00 | 0.00 | 10 | 1020.7 |
| 20260906164118 | 13 | 18 | 0.0 | 3.2 | 0.00 | 0.00 | 0.00 | 10 | 1020.3 |
| 20260906163613 | 13 | 27 | 1.6 | 4.8 | 0.00 | 0.00 | 0.00 | 10 | 1020.7 |
| 20260906163109 | 13 | 18 | 0.0 | 0.0 | 0.00 | 0.00 | 0.00 | 10 | 1020.5 |
| 20260906162606 | 13 | 10 | 0.0 | 3.2 | 0.00 | 0.00 | 0.00 | 10 | 1020.1 |
| 20260906162101 | 13 | 45 | 0.0 | 3.2 | 0.00 | 0.00 | 0.00 | 10 | 1020.3 |
| 20260906161555 | 13 | 358 | 0.0 | 1.6 | 0.00 | 0.00 | 0.00 | 10 | 1020.3 |
| 20260906161054 | 14 | 41 | 0.0 | 0.0 | 0.00 | 0.00 | 0.00 | 10 | 1020.3 |
| 20260906160553 | 14 | 38 | 0.0 | 0.0 | 0.00 | 0.00 | 0.00 | 10 | 1020.5 |
| 20260906160052 | 14 | 67 | 0.0 | 0.0 | 0.00 | 0.00 | 0.00 | 10 | 1020.6 |
| 20260906155549 | 14 | 42 | 0.0 | 0.0 | 0.00 | 0.00 | 0.00 | 10 | 1020.5 |
| 20260906155045 | 14 | 56 | 0.0 | 0.0 | 0.00 | 0.00 | 0.00 | 10 | 1020.9 |
| 20260906154541 | 13 | 35 | 0.0 | 0.0 | 0.00 | 0.00 | 0.00 | 10 | 1020.8 |
| 20260906154039 | 13 | 17 | 0.0 | 0.0 | 0.00 | 0.00 | 0.00 | 10 | 1021.1 |
| 20260906153538 | 13 | 46 | 0.0 | 0.0 | 0.00 | 0.00 | 0.00 | 10 | 1021.1 |
| 20260906153034 | 14 | 13 | 0.0 | 0.0 | 0.00 | 0.00 | 0.00 | 10 | 1021.0 |
| 20260906152533 | 14 | 33 | 0.0 | 0.0 | 0.00 | 0.00 | 0.00 | 10 | 1020.9 |
| 20260906152032 | 14 | 4 | 0.0 | 0.0 | 0.00 | 0.00 | 0.00 | 10 | 1020.9 |
| 20260906151528 | 14 | 346 | 0.0 | 0.0 | 0.00 | 0.00 | 0.00 | 10 | 1020.9 |
| 20260906151025 | 14 | 0 | 0.0 | 0.0 | 0.00 | 0.00 | 0.00 | 10 | 1020.7 |
| 20260906150519 | 14 | 25 | 0.0 | 0.0 | 0.00 | 0.00 | 0.00 | 10 | 1020.9 |
| 20260906150015 | 14 | 2 | 0.0 | 0.0 | 0.00 | 0.00 | 0.00 | 10 | 1020.8 |
| 20260906145513 | 13 | 36 | 0.0 | 0.0 | 0.00 | 0.00 | 0.00 | 10 | 1021.0 |
| 20260906145009 | 13 | 36 | 0.0 | 0.0 | 0.00 | 0.00 | 0.00 | 10 | 1021.0 |
| 20260906144503 | 13 | 53 | 0.0 | 0.0 | 0.00 | 0.00 | 0.00 | 10 | 1020.8 |
| 20260906143958 | 13 | 49 | 0.0 | 0.0 | 0.00 | 0.00 | 0.00 | 10 | 1020.7 |
| 20260906143453 | 13 | 39 | 0.0 | 0.0 | 0.00 | 0.00 | 0.00 | 10 | 1020.7 |
| 20260906142949 | 13 | 40 | 0.0 | 0.0 | 0.00 | 0.00 | 0.00 | 10 | 1020.7 |
| 20260906142449 | 13 | 29 | 0.0 | 0.0 | 0.00 | 0.00 | 0.00 | 10 | 1020.7 |
| 20260906141943 | 13 | 48 | 0.0 | 1.6 | 0.00 | 0.00 | 0.00 | 10 | 1020.9 |
| 20260906141437 | 13 | 42 | 0.0 | 0.0 | 0.00 | 0.00 | 0.00 | 10 | 1020.9 |
| 20260906140932 | 13 | 61 | 0.0 | 0.0 | 0.00 | 0.00 | 0.00 | 10 | 1020.9 |
| 20260906140426 | 13 | 16 | 0.0 | 0.0 | 0.00 | 0.00 | 0.00 | 10 | 1020.9 |
| 20260906135919 | 13 | 50 | 0.0 | 1.6 | 0.00 | 0.00 | 0.00 | 10 | 1020.8 |
| 20260906135418 | 13 | 34 | 0.0 | 0.0 | 0.00 | 0.00 | 0.00 | 10 | 1020.7 |
| 20260906134914 | 12 | 37 | 0.0 | 0.0 | 0.00 | 0.00 | 0.00 | 10 | 1020.8 |
| 20260906134409 | 12 | 25 | 0.0 | 0.0 | 0.00 | 0.00 | 0.00 | 10 | 1020.6 |
| 20260906133904 | 12 | 40 | 0.0 | 0.0 | 0.00 | 0.00 | 0.00 | 10 | 1020.6 |
| 20260906133400 | 12 | 39 | 0.0 | 0.0 | 0.00 | 0.00 | 0.00 | 10 | 1020.3 |
| 20260906132855 | 12 | 37 | 0.0 | 0.0 | 0.00 | 0.00 | 0.00 | 10 | 1020.3 |
| 20260906132350 | 12 | 33 | 0.0 | 0.0 | 0.00 | 0.00 | 0.00 | 10 | 1020.3 |
| 20260906131846 | 12 | 30 | 0.0 | 0.0 | 0.00 | 0.00 | 0.00 | 10 | 1020.6 |
| 20260906131341 | 12 | 39 | 0.0 | 0.0 | 0.00 | 0.00 | 0.00 | 10 | 1020.8 |
| 20260906130837 | 12 | 38 | 0.0 | 1.6 | 0.00 | 0.00 | 0.00 | 10 | 1020.9 |
| 20260906130336 | 12 | 31 | 0.0 | 0.0 | 0.00 | 0.00 | 0.00 | 10 | 1020.8 |
| 20260906125835 | 12 | 40 | 0.0 | 0.0 | 0.00 | 0.00 | 0.00 | 10 | 1021.0 |
| 20260906125332 | 12 | 40 | 0.0 | 0.0 | 0.00 | 0.00 | 0.00 | 10 | 1021.0 |
| 20260906124827 | 12 | 33 | 0.0 | 0.0 | 0.00 | 0.00 | 0.00 | 10 | 1021.0 |
| 20260906124324 | 12 | 44 | 1.6 | 1.6 | 0.00 | 0.00 | 0.00 | 10 | 1020.9 |
| 20260906123823 | 12 | 46 | 0.0 | 3.2 | 0.00 | 0.00 | 0.00 | 10 | 1020.7 |
| 20260906123318 | 12 | 38 | 0.0 | 1.6 | 0.00 | 0.00 | 0.00 | 10 | 1020.8 |
| 20260906122817 | 12 | 20 | 0.0 | 3.2 | 0.00 | 0.00 | 0.00 | 10 | 1020.8 |
| 20260906122312 | 12 | 44 | 0.0 | 0.0 | 0.00 | 0.00 | 0.00 | 10 | 1020.6 |
| 20260906121809 | 12 | 30 | 0.0 | 0.0 | 0.00 | 0.00 | 0.00 | 10 | 1020.8 |
| 20260906121305 | 12 | 20 | 0.0 | 0.0 | 0.00 | 0.00 | 0.00 | 10 | 1021.0 |
| 20260906120801 | 12 | 37 | 0.0 | 0.0 | 0.00 | 0.00 | 0.00 | 10 | 1021.0 |
| 20260906120257 | 12 | 31 | 0.0 | 0.0 | 0.00 | 0.00 | 0.00 | 10 | 1021.0 |
| 20260906115753 | 12 | 43 | 0.0 | 0.0 | 0.00 | 0.00 | 0.00 | 10 | 1021.1 |
| 20260906115248 | 12 | 43 | 0.0 | 0.0 | 0.00 | 0.00 | 0.00 | 10 | 1021.0 |
| 20260906114747 | 12 | 35 | 0.0 | 0.0 | 0.00 | 0.00 | 0.00 | 10 | 1021.1 |
| 20260906114242 | 12 | 38 | 0.0 | 0.0 | 0.00 | 0.00 | 0.00 | 10 | 1021.1 |
| 20260906113737 | 12 | 36 | 0.0 | 0.0 | 0.00 | 0.00 | 0.00 | 10 | 1020.9 |
| 20260906113237 | 12 | 34 | 0.0 | 0.0 | 0.00 | 0.00 | 0.00 | 10 | 1020.9 |
| 20260906112731 | 12 | 40 | 0.0 | 0.0 | 0.00 | 0.00 | 0.00 | 10 | 1020.9 |
| 20260906112228 | 12 | 47 | 0.0 | 0.0 | 0.00 | 0.00 | 0.00 | 10 | 1021.0 |
| 20260906111727 | 12 | 27 | 0.0 | 0.0 | 0.00 | 0.00 | 0.00 | 10 | 1021.3 |
| 20260906111221 | 12 | 33 | 0.0 | 1.6 | 0.00 | 0.00 | 0.00 | 10 | 1021.1 |
| 20260906110717 | 12 | 33 | 0.0 | 0.0 | 0.00 | 0.00 | 0.00 | 10 | 1021.0 |
| 20260906110213 | 12 | 41 | 0.0 | 0.0 | 0.00 | 0.00 | 0.00 | 10 | 1021.1 |
| 20260906105711 | 12 | 27 | 0.0 | 0.0 | 0.00 | 0.00 | 0.00 | 10 | 1021.0 |
| 20260906105207 | 12 | 19 | 0.0 | 3.2 | 0.00 | 0.00 | 0.00 | 10 | 1021.0 |
| 20260906104707 | 12 | 22 | 1.6 | 3.2 | 0.00 | 0.00 | 0.00 | 10 | 1020.7 |
| 20260906104201 | 12 | 36 | 0.0 | 0.0 | 0.00 | 0.00 | 0.00 | 10 | 1021.0 |
| 20260906103658 | 12 | 4 | 0.0 | 0.0 | 0.00 | 0.00 | 0.00 | 10 | 1020.7 |
| 20260906103154 | 12 | 36 | 0.0 | 0.0 | 0.00 | 0.00 | 0.00 | 10 | 1021.0 |
| 20260906102648 | 12 | 45 | 0.0 | 1.6 | 0.00 | 0.00 | 0.00 | 10 | 1021.2 |
| 20260906102143 | 12 | 9 | 0.0 | 3.2 | 0.00 | 0.00 | 0.00 | 10 | 1021.4 |
| 20260906101642 | 12 | 39 | 0.0 | 1.6 | 0.00 | 0.00 | 0.00 | 10 | 1021.3 |
| 20260906101137 | 12 | 31 | 0.0 | 1.6 | 0.00 | 0.00 | 0.00 | 10 | 1021.1 |
| 20260906100633 | 12 | 27 | 0.0 | 3.2 | 0.00 | 0.00 | 0.00 | 10 | 1020.9 |
| 20260906100127 | 12 | 31 | 0.0 | 3.2 | 0.00 | 0.00 | 0.00 | 10 | 1021.0 |
| 20260906095622 | 12 | 19 | 0.0 | 0.0 | 0.00 | 0.00 | 0.00 | 10 | 1021.0 |
| 20260906095118 | 12 | 13 | 0.0 | 1.6 | 0.00 | 0.00 | 0.00 | 10 | 1021.0 |
| 20260906094616 | 12 | 30 | 1.6 | 3.2 | 0.00 | 0.00 | 0.00 | 10 | 1021.2 |
| 20260906094112 | 12 | 45 | 0.0 | 3.2 | 0.00 | 0.00 | 0.00 | 10 | 1021.0 |
| 20260906093609 | 12 | 37 | 0.0 | 0.0 | 0.00 | 0.00 | 0.00 | 10 | 1021.3 |
| 20260906093103 | 12 | 10 | 0.0 | 0.0 | 0.00 | 0.00 | 0.00 | 10 | 1021.2 |
| 20260906092558 | 12 | 22 | 0.0 | 3.2 | 0.00 | 0.00 | 0.00 | 10 | 1021.2 |
| 20260906092053 | 12 | 339 | 1.6 | 3.2 | 0.00 | 0.00 | 0.00 | 10 | 1021.2 |
| 20260906091548 | 12 | 36 | 0.0 | 1.6 | 0.00 | 0.00 | 0.00 | 10 | 1021.3 |
| 20260906091040 | 12 | 6 | 0.0 | 0.0 | 0.00 | 0.00 | 0.00 | 10 | 1021.7 |
| 20260906090539 | 12 | 25 | 0.0 | 3.2 | 0.00 | 0.00 | 0.00 | 10 | 1021.6 |
| 20260906090034 | 12 | 23 | 0.0 | 0.0 | 0.00 | 0.00 | 0.00 | 10 | 1021.6 |
| 20260906085533 | 12 | 12 | 0.0 | 1.6 | 0.00 | 0.00 | 0.00 | 10 | 1021.4 |
| 20260906085033 | 12 | 356 | 1.6 | 3.2 | 0.00 | 0.00 | 0.00 | 10 | 1021.6 |
| 20260906084528 | 12 | 9 | 0.0 | 3.2 | 0.00 | 0.00 | 0.00 | 10 | 1021.9 |
| 20260906084026 | 12 | 9 | 0.0 | 3.2 | 0.00 | 0.00 | 0.00 | 10 | 1021.8 |
| 20260906083522 | 12 | 20 | 0.0 | 0.0 | 0.00 | 0.00 | 0.00 | 10 | 1021.8 |
| 20260906083022 | 12 | 12 | 0.0 | 0.0 | 0.00 | 0.00 | 0.00 | 10 | 1021.6 |
| 20260906082517 | 12 | 20 | 0.0 | 3.2 | 0.00 | 0.00 | 0.00 | 10 | 1022.0 |
| 20260906082013 | 12 | 22 | 0.0 | 0.0 | 0.00 | 0.00 | 0.00 | 10 | 1021.9 |
| 20260906081508 | 12 | 18 | 0.0 | 0.0 | 0.00 | 0.00 | 0.00 | 10 | 1021.8 |
| 20260906081004 | 12 | 27 | 0.0 | 1.6 | 0.00 | 0.00 | 0.00 | 10 | 1021.9 |
| 20260906080500 | 12 | 32 | 0.0 | 3.2 | 0.00 | 0.00 | 0.00 | 10 | 1021.9 |
| 20260906075955 | 12 | 21 | 1.6 | 3.2 | 0.00 | 0.00 | 0.00 | 10 | 1021.9 |
| 20260906075450 | 12 | 51 | 1.6 | 3.2 | 0.00 | 0.00 | 0.00 | 10 | 1021.9 |
| 20260906074944 | 12 | 38 | 0.0 | 1.6 | 0.00 | 0.00 | 0.00 | 10 | 1021.7 |
| 20260906074439 | 12 | 36 | 0.0 | 1.6 | 0.00 | 0.00 | 0.00 | 10 | 1021.7 |
| 20260906073937 | 12 | 33 | 0.0 | 1.6 | 0.00 | 0.00 | 0.00 | 10 | 1021.8 |
| 20260906073432 | 12 | 41 | 0.0 | 1.6 | 0.00 | 0.00 | 0.00 | 10 | 1022.0 |
| 20260906072929 | 12 | 349 | 0.0 | 1.6 | 0.00 | 0.00 | 0.00 | 10 | 1022.1 |
| 20260906072424 | 13 | 35 | 0.0 | 3.2 | 0.00 | 0.00 | 0.00 | 10 | 1022.1 |
| 20260906071920 | 13 | 22 | 0.0 | 3.2 | 0.00 | 0.00 | 0.00 | 10 | 1022.1 |
| 20260906071416 | 13 | 24 | 0.0 | 3.2 | 0.00 | 0.00 | 0.00 | 10 | 1022.2 |
| 20260906070912 | 13 | 32 | 0.0 | 1.6 | 0.00 | 0.00 | 0.00 | 10 | 1022.3 |
| 20260906070407 | 13 | 17 | 0.0 | 0.0 | 0.00 | 0.00 | 0.00 | 10 | 1022.3 |
| 20260906065903 | 13 | 39 | 0.0 | 3.2 | 0.00 | 0.00 | 0.00 | 10 | 1022.2 |
| 20260906065356 | 13 | 12 | 1.6 | 3.2 | 0.00 | 0.00 | 0.00 | 10 | 1022.5 |
| 20260906064853 | 13 | 15 | 0.0 | 0.0 | 0.00 | 0.00 | 0.00 | 10 | 1022.4 |
| 20260906064349 | 13 | 348 | 0.0 | 3.2 | 0.00 | 0.00 | 0.00 | 10 | 1022.5 |
| 20260906063848 | 13 | 15 | 0.0 | 0.0 | 0.00 | 0.00 | 0.00 | 10 | 1022.8 |
| 20260906063344 | 13 | 37 | 0.0 | 0.0 | 0.00 | 0.00 | 0.00 | 10 | 1022.7 |
| 20260906062839 | 13 | 32 | 0.0 | 0.0 | 0.00 | 0.00 | 0.00 | 10 | 1022.7 |
| 20260906062338 | 13 | 9 | 0.0 | 0.0 | 0.00 | 0.00 | 0.00 | 10 | 1022.7 |
| 20260906061834 | 13 | 356 | 1.6 | 3.2 | 0.00 | 0.00 | 0.00 | 10 | 1022.8 |
| 20260906061330 | 13 | 31 | 0.0 | 1.6 | 0.00 | 0.00 | 0.00 | 10 | 1022.3 |
| 20260906060824 | 13 | 39 | 0.0 | 0.0 | 0.00 | 0.00 | 0.00 | 10 | 1022.7 |
| 20260906060323 | 13 | 20 | 0.0 | 3.2 | 0.00 | 0.00 | 0.00 | 10 | 1022.5 |
| 20260906055818 | 13 | 4 | 0.0 | 0.0 | 0.00 | 0.20 | 0.20 | 10 | 1022.4 |
| 20260906055314 | 13 | 21 | 0.0 | 0.0 | 0.00 | 0.20 | 0.20 | 10 | 1022.4 |
| 20260906054809 | 13 | 37 | 0.0 | 0.0 | 0.00 | 0.20 | 0.20 | 10 | 1022.4 |
| 20260906054304 | 13 | 356 | 0.0 | 1.6 | 0.00 | 0.20 | 0.20 | 10 | 1022.3 |
| 20260906053800 | 13 | 29 | 1.6 | 1.6 | 0.00 | 0.20 | 0.20 | 10 | 1022.3 |
| 20260906053255 | 13 | 22 | 0.0 | 1.6 | 0.00 | 0.20 | 0.20 | 10 | 1022.3 |
| 20260906052750 | 13 | 25 | 0.0 | 0.0 | 0.00 | 0.20 | 0.20 | 10 | 1022.5 |
| 20260906052247 | 13 | 25 | 0.0 | 0.0 | 0.00 | 0.20 | 0.20 | 10 | 1022.3 |
| 20260906051744 | 13 | 31 | 0.0 | 1.6 | 0.00 | 0.20 | 0.20 | 10 | 1022.3 |
| 20260906051243 | 13 | 35 | 0.0 | 0.0 | 0.00 | 0.20 | 0.20 | 10 | 1022.3 |
| 20260906050738 | 13 | 15 | 0.0 | 3.2 | 0.00 | 0.20 | 0.20 | 10 | 1022.4 |
| 20260906050233 | 13 | 20 | 0.0 | 1.6 | 0.00 | 0.20 | 0.20 | 10 | 1023.8 |
| 20260906045732 | 13 | 7 | 0.0 | 3.2 | 0.00 | 0.20 | 0.20 | 10 | 1023.1 |
| 20260906045227 | 13 | 28 | 0.0 | 3.2 | 0.00 | 0.20 | 0.20 | 10 | 1022.7 |
| 20260906044723 | 13 | 28 | 0.0 | 1.6 | 0.00 | 0.20 | 0.20 | 10 | 1022.4 |
| 20260906044218 | 13 | 17 | 0.0 | 0.0 | 0.00 | 0.20 | 0.20 | 10 | 1022.4 |
| 20260906043714 | 13 | 34 | 0.0 | 1.6 | 0.00 | 0.20 | 0.20 | 10 | 1021.9 |
| 20260906043210 | 13 | 20 | 0.0 | 1.6 | 0.00 | 0.20 | 0.20 | 10 | 1021.8 |
| 20260906042709 | 13 | 28 | 0.0 | 3.2 | 0.00 | 0.20 | 0.20 | 10 | 1021.9 |
| 20260906042209 | 13 | 36 | 0.0 | 0.0 | 0.00 | 0.20 | 0.20 | 10 | 1021.7 |
| 20260906041704 | 13 | 11 | 0.0 | 0.0 | 0.00 | 0.20 | 0.20 | 10 | 1021.6 |
| 20260906041159 | 13 | 45 | 0.0 | 3.2 | 0.00 | 0.20 | 0.20 | 10 | 1021.9 |
| 20260906040655 | 13 | 42 | 0.0 | 3.2 | 0.00 | 0.20 | 0.20 | 10 | 1022.1 |
| 20260906040150 | 13 | 17 | 0.0 | 0.0 | 0.00 | 0.20 | 0.20 | 10 | 1021.9 |
| 20260906035645 | 13 | 37 | 0.0 | 4.8 | 0.00 | 0.20 | 0.20 | 10 | 1022.0 |
| 20260906035141 | 13 | 9 | 0.0 | 4.8 | 0.61 | 0.20 | 0.20 | 10 | 1021.9 |
| 20260906034635 | 13 | 350 | 0.0 | 3.2 | 0.89 | 0.18 | 0.18 | 10 | 1022.2 |
| 20260906034130 | 15 | 21 | 0.0 | 0.0 | 0.18 | 0.05 | 0.05 | 10 | 1022.1 |
| 20260906033625 | 15 | 327 | 0.0 | 1.6 | 0.00 | 0.03 | 0.03 | 10 | 1023.4 |
| 20260906033120 | 15 | 349 | 0.0 | 1.6 | 0.00 | 0.03 | 0.03 | 10 | 1022.9 |
| 20260906032617 | 15 | 348 | 0.0 | 1.6 | 0.00 | 0.03 | 0.03 | 10 | 1022.0 |
| 20260906032116 | 15 | 354 | 1.6 | 4.8 | 0.00 | 0.03 | 0.03 | 10 | 1021.3 |
| 20260906031612 | 15 | 33 | 0.0 | 3.2 | 0.00 | 0.03 | 0.03 | 10 | 1021.3 |
| 20260906031107 | 15 | 20 | 1.6 | 3.2 | 0.00 | 0.03 | 0.03 | 10 | 1021.2 |
| 20260906030606 | 15 | 25 | 0.0 | 0.0 | 0.00 | 0.03 | 0.03 | 10 | 1021.3 |
| 20260906025556 | 15 | 22 | 0.0 | 0.0 | 0.00 | 0.03 | 0.03 | 10 | 1021.1 |
| 20260906025054 | 15 | 52 | 0.0 | 0.0 | 0.00 | 0.03 | 0.03 | 10 | 1021.0 |
| 20260906024550 | 15 | 37 | 0.0 | 3.2 | 0.00 | 0.03 | 0.03 | 10 | 1021.0 |
| 20260906024049 | 15 | 45 | 0.0 | 0.0 | 0.00 | 0.03 | 0.03 | 10 | 1020.9 |
| 20260906023546 | 15 | 17 | 0.0 | 3.2 | 0.00 | 0.03 | 0.03 | 10 | 1020.7 |
| 20260906023040 | 15 | 39 | 0.0 | 0.0 | 0.00 | 0.03 | 0.03 | 10 | 1020.9 |
| 20260906022535 | 15 | 47 | 0.0 | 0.0 | 0.00 | 0.03 | 0.03 | 10 | 1020.7 |
| 20260906022031 | 15 | 31 | 0.0 | 1.6 | 0.00 | 0.03 | 0.03 | 10 | 1020.6 |
| 20260906021526 | 15 | 30 | 1.6 | 3.2 | 0.00 | 0.03 | 0.03 | 10 | 1020.8 |
| 20260906021020 | 15 | 27 | 0.0 | 0.0 | 0.00 | 0.03 | 0.03 | 10 | 1020.9 |
| 20260906020519 | 15 | 32 | 1.6 | 1.6 | 0.00 | 0.03 | 0.03 | 10 | 1021.0 |
| 20260906020019 | 15 | 24 | 0.0 | 0.0 | 0.00 | 0.03 | 0.03 | 10 | 1020.9 |
| 20260906015518 | 16 | 24 | 0.0 | 1.6 | 0.00 | 0.03 | 0.03 | 10 | 1021.0 |
| 20260906015018 | 16 | 35 | 1.6 | 3.2 | 0.00 | 0.03 | 0.03 | 10 | 1020.9 |
| 20260906014513 | 16 | 36 | 0.0 | 1.6 | 0.00 | 0.03 | 0.03 | 10 | 1020.8 |
| 20260906014009 | 16 | 29 | 0.0 | 0.0 | 0.00 | 0.03 | 0.03 | 10 | 1020.9 |
| 20260906013504 | 16 | 22 | 0.0 | 0.0 | 0.00 | 0.03 | 0.03 | 10 | 1020.7 |
| 20260906013000 | 16 | 22 | 0.0 | 0.0 | 0.00 | 0.03 | 0.03 | 10 | 1020.9 |
| 20260906012454 | 16 | 23 | 0.0 | 1.6 | 0.00 | 0.03 | 0.03 | 10 | 1020.6 |
| 20260906011954 | 16 | 19 | 0.0 | 3.2 | 0.00 | 0.03 | 0.03 | 10 | 1020.5 |
| 20260906011449 | 16 | 39 | 0.0 | 1.6 | 0.00 | 0.03 | 0.03 | 10 | 1020.8 |
| 20260906010944 | 17 | 341 | 0.0 | 3.2 | 0.00 | 0.03 | 0.03 | 10 | 1020.5 |
| 20260906010440 | 17 | 8 | 1.6 | 4.8 | 0.00 | 0.03 | 0.03 | 10 | 1020.6 |
| 20260906005936 | 17 | 28 | 1.6 | 3.2 | 0.00 | 0.03 | 0.03 | 10 | 1020.6 |
| 20260906005436 | 18 | 20 | 0.0 | 3.2 | 0.00 | 0.03 | 0.03 | 10 | 1020.6 |
| 20260906004934 | 18 | 22 | 1.6 | 3.2 | 0.00 | 0.03 | 0.03 | 10 | 1020.7 |
| 20260906004429 | 18 | 22 | 0.0 | 3.2 | 0.00 | 0.03 | 0.03 | 10 | 1020.6 |
| 20260906003925 | 18 | 15 | 0.0 | 3.2 | 0.00 | 0.03 | 0.03 | 10 | 1020.7 |
| 20260906003419 | 19 | 27 | 0.0 | 0.0 | 0.00 | 0.03 | 0.03 | 10 | 1020.5 |
| 20260906002915 | 19 | 6 | 0.0 | 1.6 | 0.00 | 0.03 | 0.03 | 10 | 1020.5 |
| 20260906002414 | 19 | 29 | 0.0 | 0.0 | 0.00 | 0.03 | 0.03 | 10 | 1020.5 |
| 20260906001909 | 19 | 26 | 1.6 | 8.0 | 0.00 | 0.03 | 0.03 | 10 | 1020.5 |
| 20260906001405 | 20 | 20 | 0.0 | 3.2 | 0.00 | 0.03 | 0.03 | 10 | 1020.7 |
| 20260906000905 | 20 | 22 | 0.0 | 3.2 | 0.00 | 0.03 | 0.03 | 10 | 1020.7 |
| 20260906000403 | 20 | 328 | 1.6 | 3.2 | 0.00 | 0.03 | 0.03 | 10 | 1020.8 |
| 20260905235855 | 20 | 30 | 0.0 | 3.2 | 0.00 | 0.03 | 0.03 | 10 | 1020.9 |
| 20260905235349 | 20 | 19 | 0.0 | 1.6 | 0.00 | 0.03 | 0.03 | 10 | 1020.8 |
| 20260905234844 | 20 | 28 | 0.0 | 0.0 | 0.00 | 0.03 | 0.03 | 10 | 1020.8 |
| 20260905234340 | 20 | 19 | 0.0 | 4.8 | 0.00 | 0.03 | 0.03 | 10 | 1020.8 |
| 20260905233835 | 20 | 19 | 0.0 | 0.0 | 0.00 | 0.03 | 0.03 | 10 | 1021.0 |
| 20260905233330 | 20 | 19 | 0.0 | 0.0 | 0.00 | 0.03 | 0.03 | 10 | 1020.7 |
| 20260905232829 | 20 | 17 | 0.0 | 1.6 | 0.00 | 0.03 | 0.03 | 10 | 1020.9 |
| 20260905232325 | 20 | 1 | 0.0 | 1.6 | 0.00 | 0.03 | 0.03 | 10 | 1020.8 |
| 20260905231821 | 21 | 32 | 0.0 | 0.0 | 0.00 | 0.03 | 0.03 | 10 | 1021.1 |
| 20260905231316 | 20 | 17 | 1.6 | 3.2 | 0.00 | 0.03 | 0.03 | 10 | 1020.7 |
| 20260905230812 | 21 | 31 | 0.0 | 0.0 | 0.00 | 0.03 | 0.03 | 10 | 1020.7 |
| 20260905230310 | 20 | 31 | 0.0 | 0.0 | 0.00 | 0.03 | 0.03 | 10 | 1020.8 |